,,Stat5,,Stat1,,Stat2,,Stat3,,Stat4,,Wind1,,Wind1,
time,status,PA1M_AVG,status,PR1M_SUM,status,RH1M_AVG,status,SR1M_AVG,status,TA1M_AVG,status,W1dAve1m,status,W1sAve1m,
2002-05-26, 00:00:00,VALID,920.386,VALID,0,VALID,99.4675,VALID,0.0169808,VALID,19.8441,VALID,53,VALID,0.617969,
2002-05-26, 00:01:00,VALID,920.363,VALID,0,VALID,99.4598,VALID,0.0169808,VALID,19.8476,VALID,54,VALID,0.616536,
2002-05-26, 00:02:00,VALID,920.351,VALID,0,VALID,99.4675,VALID,0.0339617,VALID,19.8274,VALID,54,VALID,0.560892,
2002-05-26, 00:03:00,VALID,920.342,VALID,0,VALID,99.4675,VALID,0.0169808,VALID,19.8379,VALID,57,VALID,0.82832,
2002-05-26, 00:04:00,VALID,920.35,VALID,0,VALID,99.4585,VALID,0.0169808,VALID,19.815,VALID,71,VALID,0.899384,
2002-05-26, 00:05:00,VALID,920.346,VALID,0,VALID,99.4573,VALID,0,VALID,19.7892,VALID,59,VALID,0.88817,
2002-05-26, 00:06:00,VALID,920.36,VALID,0,VALID,99.4624,VALID,0,VALID,19.7735,VALID,65,VALID,0.462891,
2002-05-26, 00:07:00,VALID,920.346,VALID,0,VALID,99.4649,VALID,0,VALID,19.7802,VALID,52,VALID,0.474777,
2002-05-26, 00:08:00,VALID,920.328,VALID,0,VALID,99.4687,VALID,0.0169808,VALID,19.7735,VALID,39,VALID,0.950368,
2002-05-26, 00:09:00,VALID,920.316,VALID,0,VALID,99.4585,VALID,0,VALID,19.7666,VALID,33,VALID,1.0377,
2002-05-26, 00:10:00,VALID,920.286,VALID,0,VALID,99.4662,VALID,0.0169808,VALID,19.7698,VALID,48,VALID,1.13944,
2002-05-26, 00:11:00,VALID,920.267,VALID,0,VALID,99.4624,VALID,0,VALID,19.7862,VALID,47,VALID,0.637723,
2002-05-26, 00:12:00,VALID,920.268,VALID,0,VALID,99.4624,VALID,0,VALID,19.7894,VALID,47,VALID,0.207422,
2002-05-26, 00:13:00,VALID,920.252,VALID,0,VALID,99.4764,VALID,0,VALID,19.7991,VALID,3,VALID,0.501116,
2002-05-26, 00:14:00,VALID,920.248,VALID,0,VALID,99.4675,VALID,-0.0169808,VALID,19.8026,VALID,6,VALID,0.329733,
2002-05-26, 00:15:00,VALID,920.234,VALID,0,VALID,99.4713,VALID,0,VALID,19.7929,VALID,16,VALID,0.432422,
2002-05-26, 00:16:00,VALID,920.224,VALID,0,VALID,99.4649,VALID,-0.0169808,VALID,19.7864,VALID,10,VALID,0.402936,
2002-05-26, 00:17:00,VALID,920.19,VALID,0,VALID,99.4751,VALID,0,VALID,19.7802,VALID,7,VALID,0.248437,
2002-05-26, 00:18:00,VALID,920.176,VALID,0,VALID,99.4713,VALID,0,VALID,19.7897,VALID,4,VALID,0.426562,
2002-05-26, 00:19:00,VALID,920.147,VALID,0,VALID,99.4675,VALID,-0.0169808,VALID,19.7797,VALID,353,VALID,0.546875,
2002-05-26, 00:20:00,VALID,920.116,VALID,0,VALID,99.47,VALID,-0.0169808,VALID,19.7574,VALID,314,VALID,0.633042,
2002-05-26, 00:21:00,VALID,920.088,VALID,0,VALID,99.4751,VALID,0.0169808,VALID,19.7574,VALID,289,VALID,0.254883,
2002-05-26, 00:22:00,VALID,920.068,VALID,0,VALID,99.4764,VALID,0,VALID,19.7636,VALID,291,VALID,0.039536,
2002-05-26, 00:23:00,VALID,920.041,VALID,0,VALID,99.4789,VALID,0,VALID,19.7698,VALID,345,VALID,0,
2002-05-26, 00:24:00,VALID,920.036,VALID,0,VALID,99.4776,VALID,0,VALID,19.7698,VALID,360,VALID,0.27168,
2002-05-26, 00:25:00,VALID,920.024,VALID,0,VALID,99.4725,VALID,0,VALID,19.7641,VALID,360,VALID,0.414509,
2002-05-26, 00:26:00,VALID,920.022,VALID,0,VALID,99.4751,VALID,0,VALID,19.7445,VALID,360,VALID,0.102252,
2002-05-26, 00:27:00,VALID,920.02,VALID,0,VALID,99.4827,VALID,0.0169808,VALID,19.7412,VALID,360,VALID,0,
2002-05-26, 00:28:00,VALID,920.021,VALID,0,VALID,99.4802,VALID,0,VALID,19.7246,VALID,360,VALID,0,
2002-05-26, 00:29:00,VALID,920.02,VALID,0,VALID,99.4827,VALID,0.0169808,VALID,19.7119,VALID,360,VALID,0,
2002-05-26, 00:30:00,VALID,920.004,VALID,0,VALID,99.4776,VALID,0,VALID,19.6953,VALID,360,VALID,0,
2002-05-26, 00:31:00,VALID,919.976,VALID,0,VALID,99.4814,VALID,-0.0339617,VALID,19.7159,VALID,360,VALID,0,
2002-05-26, 00:32:00,VALID,919.943,VALID,0,VALID,99.4751,VALID,0,VALID,19.7089,VALID,360,VALID,0.161305,
2002-05-26, 00:33:00,VALID,919.915,VALID,0,VALID,99.4776,VALID,-0.0169808,VALID,19.7059,VALID,1,VALID,0.473047,
2002-05-26, 00:34:00,VALID,919.89,VALID,0,VALID,99.4789,VALID,0,VALID,19.6607,VALID,1,VALID,0.611742,
2002-05-26, 00:35:00,VALID,919.853,VALID,0,VALID,99.4789,VALID,0,VALID,19.6379,VALID,5,VALID,0.847768,
2002-05-26, 00:36:00,VALID,919.843,VALID,0,VALID,99.4738,VALID,0,VALID,19.6088,VALID,14,VALID,1.06348,
2002-05-26, 00:37:00,VALID,919.802,VALID,0,VALID,99.4853,VALID,0,VALID,19.5859,VALID,8,VALID,1.00491,
2002-05-26, 00:38:00,VALID,919.772,VALID,0,VALID,99.4865,VALID,0,VALID,19.5636,VALID,344,VALID,0.709559,
2002-05-26, 00:39:00,VALID,919.745,VALID,0,VALID,99.4878,VALID,0,VALID,19.5601,VALID,1,VALID,0.54668,
2002-05-26, 00:40:00,VALID,919.709,VALID,0,VALID,99.4814,VALID,0,VALID,19.5636,VALID,358,VALID,0.900331,
2002-05-26, 00:41:00,VALID,919.688,VALID,0,VALID,99.4764,VALID,0,VALID,19.57,VALID,358,VALID,1.13527,
2002-05-26, 00:42:00,VALID,919.664,VALID,0,VALID,99.4814,VALID,0,VALID,19.5601,VALID,356,VALID,0.718555,
2002-05-26, 00:43:00,VALID,919.645,VALID,0,VALID,99.4814,VALID,0,VALID,19.5663,VALID,332,VALID,1.00469,
2002-05-26, 00:44:00,VALID,919.64,VALID,0,VALID,99.4827,VALID,0,VALID,19.6058,VALID,334,VALID,0.773226,
2002-05-26, 00:45:00,VALID,919.619,VALID,0,VALID,99.4853,VALID,0,VALID,19.6058,VALID,319,VALID,0.631836,
2002-05-26, 00:46:00,VALID,919.613,VALID,0,VALID,99.4891,VALID,0,VALID,19.5892,VALID,284,VALID,0.422112,
2002-05-26, 00:47:00,VALID,919.604,VALID,0,VALID,99.4929,VALID,0,VALID,19.6098,VALID,284,VALID,0.326339,
2002-05-26, 00:48:00,VALID,919.592,VALID,0,VALID,99.4827,VALID,-0.0169808,VALID,19.5926,VALID,344,VALID,0.299023,
2002-05-26, 00:49:00,VALID,919.572,VALID,0,VALID,99.4942,VALID,-0.0169808,VALID,19.5964,VALID,346,VALID,0.0328125,
2002-05-26, 00:50:00,VALID,919.576,VALID,0,VALID,99.4954,VALID,0,VALID,19.6058,VALID,346,VALID,0.0643382,
2002-05-26, 00:51:00,VALID,919.56,VALID,0,VALID,99.4891,VALID,0,VALID,19.6056,VALID,349,VALID,0.11582,
2002-05-26, 00:52:00,VALID,919.548,VALID,0,VALID,99.4916,VALID,0.0169808,VALID,19.6118,VALID,318,VALID,0.197443,
2002-05-26, 00:53:00,VALID,919.534,VALID,0,VALID,99.5018,VALID,0,VALID,19.6254,VALID,15,VALID,0.332589,
2002-05-26, 00:54:00,VALID,919.522,VALID,0,VALID,99.4992,VALID,-0.0169808,VALID,19.6222,VALID,3,VALID,0.611914,
2002-05-26, 00:55:00,VALID,919.52,VALID,0,VALID,99.5005,VALID,0.0169808,VALID,19.6056,VALID,350,VALID,0.68058,
2002-05-26, 00:56:00,VALID,919.505,VALID,0,VALID,99.5069,VALID,0,VALID,19.5698,VALID,314,VALID,0.611903,
2002-05-26, 00:57:00,VALID,919.491,VALID,0,VALID,99.5094,VALID,0,VALID,19.5541,VALID,329,VALID,0.50918,
2002-05-26, 00:58:00,VALID,919.48,VALID,0,VALID,99.5031,VALID,-0.0169808,VALID,19.5675,VALID,17,VALID,0.232244,
2002-05-26, 00:59:00,VALID,919.447,VALID,0,VALID,99.5107,VALID,0,VALID,19.574,VALID,2,VALID,0.15067,
2002-05-26, 01:00:00,VALID,919.417,VALID,0,VALID,99.5107,VALID,-0.0339617,VALID,19.577,VALID,320,VALID,0.0757812,
2002-05-26, 01:01:00,VALID,919.393,VALID,0,VALID,99.5158,VALID,0,VALID,19.5797,VALID,310,VALID,0.0238839,
2002-05-26, 01:02:00,VALID,919.373,VALID,0,VALID,99.5107,VALID,0,VALID,19.5892,VALID,224,VALID,0.286075,
2002-05-26, 01:03:00,VALID,919.34,VALID,0,VALID,99.5145,VALID,-0.0169808,VALID,19.5993,VALID,222,VALID,0.0966797,
2002-05-26, 01:04:00,VALID,919.321,VALID,0,VALID,99.5145,VALID,0,VALID,19.5926,VALID,222,VALID,0.0487689,
2002-05-26, 01:05:00,VALID,919.29,VALID,0,VALID,99.5132,VALID,0,VALID,19.5996,VALID,206,VALID,0.0462054,
2002-05-26, 01:06:00,VALID,919.263,VALID,0,VALID,99.5158,VALID,0,VALID,19.6157,VALID,47,VALID,0.176563,
2002-05-26, 01:07:00,VALID,919.255,VALID,0,VALID,99.5107,VALID,0,VALID,19.6418,VALID,43,VALID,0.345089,
2002-05-26, 01:08:00,VALID,919.257,VALID,0,VALID,99.5145,VALID,0,VALID,19.654,VALID,26,VALID,0.391774,
2002-05-26, 01:09:00,VALID,919.228,VALID,0,VALID,99.517,VALID,0,VALID,19.6637,VALID,14,VALID,0.644727,
2002-05-26, 01:10:00,VALID,919.214,VALID,0,VALID,99.5081,VALID,0,VALID,19.6605,VALID,13,VALID,0.786932,
2002-05-26, 01:11:00,VALID,919.191,VALID,0,VALID,99.5196,VALID,-0.0169808,VALID,19.6475,VALID,4,VALID,0.725223,
2002-05-26, 01:12:00,VALID,919.167,VALID,0,VALID,99.5196,VALID,-0.0169808,VALID,19.5986,VALID,338,VALID,0.779688,
2002-05-26, 01:13:00,VALID,919.147,VALID,0,VALID,99.5158,VALID,-0.0169808,VALID,19.5894,VALID,326,VALID,0.547098,
2002-05-26, 01:14:00,VALID,919.116,VALID,0,VALID,99.517,VALID,0,VALID,19.606,VALID,321,VALID,0.181756,
2002-05-26, 01:15:00,VALID,919.092,VALID,0,VALID,99.5183,VALID,0,VALID,19.606,VALID,321,VALID,0.127539,
2002-05-26, 01:16:00,VALID,919.072,VALID,0,VALID,99.5209,VALID,-0.0509425,VALID,19.6381,VALID,320,VALID,0.156013,
2002-05-26, 01:17:00,VALID,919.046,VALID,0,VALID,99.517,VALID,-0.0169808,VALID,19.6515,VALID,317,VALID,0.202455,
2002-05-26, 01:18:00,VALID,919.026,VALID,0,VALID,99.5145,VALID,-0.0509425,VALID,19.6515,VALID,313,VALID,0.154883,
2002-05-26, 01:19:00,VALID,919,VALID,0,VALID,99.5158,VALID,-0.0339617,VALID,19.6416,VALID,283,VALID,0.231473,
2002-05-26, 01:20:00,VALID,918.971,VALID,0,VALID,99.5234,VALID,-0.0509425,VALID,19.6381,VALID,270,VALID,0.218061,
2002-05-26, 01:21:00,VALID,918.941,VALID,0,VALID,99.517,VALID,0,VALID,19.651,VALID,266,VALID,0.0738281,
2002-05-26, 01:22:00,VALID,918.917,VALID,0,VALID,99.517,VALID,-0.0339617,VALID,19.6416,VALID,266,VALID,0,
2002-05-26, 01:23:00,VALID,918.909,VALID,0,VALID,99.5221,VALID,-0.0169808,VALID,19.6416,VALID,266,VALID,0,
2002-05-26, 01:24:00,VALID,918.899,VALID,0,VALID,99.5209,VALID,0,VALID,19.6177,VALID,261,VALID,0.218945,
2002-05-26, 01:25:00,VALID,918.909,VALID,0,VALID,99.5183,VALID,0.0679233,VALID,19.6043,VALID,248,VALID,0.439286,
2002-05-26, 01:26:00,VALID,918.909,VALID,0,VALID,99.5209,VALID,0.101885,VALID,19.575,VALID,247,VALID,0.251838,
2002-05-26, 01:27:00,VALID,918.914,VALID,0,VALID,99.5272,VALID,0.0849042,VALID,19.5879,VALID,248,VALID,0.119922,
2002-05-26, 01:28:00,VALID,918.936,VALID,0,VALID,99.5196,VALID,0.0849042,VALID,19.5847,VALID,248,VALID,0.202178,
2002-05-26, 01:29:00,VALID,918.936,VALID,0,VALID,99.5298,VALID,0.101885,VALID,19.5656,VALID,246,VALID,0.140179,
2002-05-26, 01:30:00,VALID,918.935,VALID,0,VALID,99.531,VALID,0.0679233,VALID,19.5623,VALID,246,VALID,0,
2002-05-26, 01:31:00,VALID,918.912,VALID,0,VALID,99.5272,VALID,0.0509425,VALID,19.5561,VALID,246,VALID,0,
2002-05-26, 01:32:00,VALID,918.9,VALID,0,VALID,99.531,VALID,0.0679233,VALID,19.5333,VALID,246,VALID,0,
2002-05-26, 01:33:00,VALID,918.884,VALID,0,VALID,99.5374,VALID,0.101885,VALID,19.5169,VALID,229,VALID,0.195313,
2002-05-26, 01:34:00,VALID,918.885,VALID,0,VALID,99.5285,VALID,0.0849042,VALID,19.5144,VALID,180,VALID,0.566525,
2002-05-26, 01:35:00,VALID,918.873,VALID,0,VALID,99.5259,VALID,0.0849042,VALID,19.4749,VALID,179,VALID,0.552902,
2002-05-26, 01:36:00,VALID,918.867,VALID,0,VALID,99.5209,VALID,0.0849042,VALID,19.4557,VALID,175,VALID,0.640234,
2002-05-26, 01:37:00,VALID,918.852,VALID,0,VALID,99.5247,VALID,0.0849042,VALID,19.4431,VALID,170,VALID,0.796875,
2002-05-26, 01:38:00,VALID,918.846,VALID,0,VALID,99.5387,VALID,0.0679233,VALID,19.4394,VALID,172,VALID,0.8642,
2002-05-26, 01:39:00,VALID,918.845,VALID,0,VALID,99.5361,VALID,0.0169808,VALID,19.4473,VALID,177,VALID,0.655664,
2002-05-26, 01:40:00,VALID,918.833,VALID,0,VALID,99.5374,VALID,-0.0509425,VALID,19.455,VALID,178,VALID,0.527225,
2002-05-26, 01:41:00,VALID,918.817,VALID,0,VALID,99.5336,VALID,-0.0509425,VALID,19.4381,VALID,180,VALID,0.345982,
2002-05-26, 01:42:00,VALID,918.817,VALID,0,VALID,99.5387,VALID,-0.0509425,VALID,19.4503,VALID,185,VALID,0.378711,
2002-05-26, 01:43:00,VALID,918.812,VALID,0,VALID,99.5425,VALID,-0.0509425,VALID,19.4634,VALID,183,VALID,0.279241,
2002-05-26, 01:44:00,VALID,918.803,VALID,0,VALID,99.5387,VALID,-0.0169808,VALID,19.4798,VALID,192,VALID,0.360064,
2002-05-26, 01:45:00,VALID,918.797,VALID,0,VALID,99.5298,VALID,-0.0339617,VALID,19.4967,VALID,198,VALID,0.149609,
2002-05-26, 01:46:00,VALID,918.792,VALID,0,VALID,99.5374,VALID,-0.0339617,VALID,19.4997,VALID,201,VALID,0.436553,
2002-05-26, 01:47:00,VALID,918.797,VALID,0,VALID,99.5374,VALID,-0.0509425,VALID,19.5158,VALID,208,VALID,0.345759,
2002-05-26, 01:48:00,VALID,918.782,VALID,0,VALID,99.5399,VALID,-0.0509425,VALID,19.5129,VALID,208,VALID,0.1125,
2002-05-26, 01:49:00,VALID,918.779,VALID,0,VALID,99.5361,VALID,-0.0169808,VALID,19.5089,VALID,208,VALID,0.0629464,
2002-05-26, 01:50:00,VALID,918.79,VALID,0,VALID,99.5361,VALID,-0.0169808,VALID,19.5288,VALID,208,VALID,0.0289522,
2002-05-26, 01:51:00,VALID,918.793,VALID,0,VALID,99.531,VALID,-0.0679233,VALID,19.529,VALID,208,VALID,0.0625,
2002-05-26, 01:52:00,VALID,918.8,VALID,0,VALID,99.5387,VALID,-0.0339617,VALID,19.5126,VALID,182,VALID,0.352273,
2002-05-26, 01:53:00,VALID,918.809,VALID,0,VALID,99.5387,VALID,0,VALID,19.4932,VALID,179,VALID,0.273214,
2002-05-26, 01:54:00,VALID,918.811,VALID,0,VALID,99.5298,VALID,-0.0679233,VALID,19.4669,VALID,178,VALID,0.0314453,
2002-05-26, 01:55:00,VALID,918.798,VALID,0,VALID,99.5361,VALID,-0.0339617,VALID,19.4579,VALID,178,VALID,0.00223214,
2002-05-26, 01:56:00,VALID,918.801,VALID,0,VALID,99.5323,VALID,-0.0339617,VALID,19.4185,VALID,175,VALID,0.0284926,
2002-05-26, 01:57:00,VALID,918.79,VALID,0,VALID,99.5437,VALID,-0.0169808,VALID,19.3765,VALID,155,VALID,0,
2002-05-26, 01:58:00,VALID,918.775,VALID,0,VALID,99.5348,VALID,-0.0339617,VALID,19.3541,VALID,102,VALID,0.343277,
2002-05-26, 01:59:00,VALID,918.777,VALID,0,VALID,99.5488,VALID,-0.0509425,VALID,19.3283,VALID,93,VALID,0.671205,
2002-05-26, 02:00:00,VALID,918.778,VALID,0,VALID,99.5348,VALID,-0.0169808,VALID,19.335,VALID,88,VALID,0.814844,
2002-05-26, 02:01:00,VALID,918.776,VALID,0,VALID,99.5425,VALID,-0.0339617,VALID,19.3024,VALID,71,VALID,0.986607,
2002-05-26, 02:02:00,VALID,918.778,VALID,0,VALID,99.5463,VALID,-0.0339617,VALID,19.2833,VALID,56,VALID,0.953125,
2002-05-26, 02:03:00,VALID,918.777,VALID,0,VALID,99.5476,VALID,-0.0339617,VALID,19.2644,VALID,56,VALID,0.786328,
2002-05-26, 02:04:00,VALID,918.768,VALID,0,VALID,99.5527,VALID,-0.0849042,VALID,19.2671,VALID,80,VALID,1.02462,
2002-05-26, 02:05:00,VALID,918.753,VALID,0,VALID,99.5552,VALID,-0.0169808,VALID,19.2669,VALID,105,VALID,0.544196,
2002-05-26, 02:06:00,VALID,918.757,VALID,0,VALID,99.5552,VALID,-0.0169808,VALID,19.2542,VALID,123,VALID,0.392969,
2002-05-26, 02:07:00,VALID,918.759,VALID,0,VALID,99.5488,VALID,-0.0339617,VALID,19.2311,VALID,128,VALID,0.216295,
2002-05-26, 02:08:00,VALID,918.76,VALID,0,VALID,99.5539,VALID,-0.0339617,VALID,19.2314,VALID,130,VALID,0.327665,
2002-05-26, 02:09:00,VALID,918.762,VALID,0,VALID,99.5577,VALID,-0.0169808,VALID,19.2448,VALID,130,VALID,0.0607422,
2002-05-26, 02:10:00,VALID,918.761,VALID,0,VALID,99.5666,VALID,-0.0849042,VALID,19.2478,VALID,130,VALID,0,
2002-05-26, 02:11:00,VALID,918.754,VALID,0,VALID,99.5565,VALID,-0.0509425,VALID,19.2475,VALID,130,VALID,0,
2002-05-26, 02:12:00,VALID,918.727,VALID,0,VALID,99.5641,VALID,-0.0509425,VALID,19.2644,VALID,127,VALID,0,
2002-05-26, 02:13:00,VALID,918.71,VALID,0,VALID,99.5603,VALID,-0.0679233,VALID,19.2607,VALID,122,VALID,0.369643,
2002-05-26, 02:14:00,VALID,918.702,VALID,0,VALID,99.5692,VALID,-0.0169808,VALID,19.2704,VALID,122,VALID,0.29136,
2002-05-26, 02:15:00,VALID,918.691,VALID,0,VALID,99.5552,VALID,-0.0679233,VALID,19.2838,VALID,121,VALID,0.24375,
2002-05-26, 02:16:00,VALID,918.669,VALID,0,VALID,99.5641,VALID,-0.0339617,VALID,19.2801,VALID,111,VALID,0.322443,
2002-05-26, 02:17:00,VALID,918.656,VALID,0,VALID,99.5679,VALID,0,VALID,19.2997,VALID,89,VALID,0.410937,
2002-05-26, 02:18:00,VALID,918.636,VALID,0,VALID,99.5654,VALID,0,VALID,19.2833,VALID,81,VALID,0.608594,
2002-05-26, 02:19:00,VALID,918.623,VALID,0,VALID,99.5666,VALID,-0.0169808,VALID,19.287,VALID,80,VALID,0.595982,
2002-05-26, 02:20:00,VALID,918.612,VALID,0,VALID,99.5654,VALID,-0.0509425,VALID,19.2634,VALID,79,VALID,0.740809,
2002-05-26, 02:21:00,VALID,918.611,VALID,0,VALID,99.5717,VALID,-0.101885,VALID,19.2805,VALID,80,VALID,0.753516,
2002-05-26, 02:22:00,VALID,918.603,VALID,0,VALID,99.5743,VALID,-0.0679233,VALID,19.2746,VALID,80,VALID,0.766335,
2002-05-26, 02:23:00,VALID,918.606,VALID,0,VALID,99.5743,VALID,-0.0339617,VALID,19.2641,VALID,89,VALID,0.793527,
2002-05-26, 02:24:00,VALID,918.615,VALID,0,VALID,99.5666,VALID,0,VALID,19.2701,VALID,94,VALID,0.70293,
2002-05-26, 02:25:00,VALID,918.609,VALID,0,VALID,99.5781,VALID,-0.0169808,VALID,19.2641,VALID,89,VALID,1.01652,
2002-05-26, 02:26:00,VALID,918.602,VALID,0,VALID,99.5806,VALID,-0.0339617,VALID,19.2574,VALID,88,VALID,1.28447,
2002-05-26, 02:27:00,VALID,918.594,VALID,0,VALID,99.5755,VALID,-0.0679233,VALID,19.2542,VALID,89,VALID,1.0916,
2002-05-26, 02:28:00,VALID,918.601,VALID,0,VALID,99.5755,VALID,-0.0509425,VALID,19.2711,VALID,87,VALID,1.10677,
2002-05-26, 02:29:00,VALID,918.585,VALID,0,VALID,99.573,VALID,-0.0509425,VALID,19.2708,VALID,96,VALID,1.12902,
2002-05-26, 02:30:00,VALID,918.582,VALID,0,VALID,99.587,VALID,-0.0509425,VALID,19.29,VALID,98,VALID,0.823047,
2002-05-26, 02:31:00,VALID,918.584,VALID,0,VALID,99.5806,VALID,-0.101885,VALID,19.2962,VALID,93,VALID,0.630134,
2002-05-26, 02:32:00,VALID,918.583,VALID,0,VALID,99.5768,VALID,-0.0679233,VALID,19.3258,VALID,96,VALID,0.672105,
2002-05-26, 02:33:00,VALID,918.575,VALID,0,VALID,99.5857,VALID,-0.0509425,VALID,19.3449,VALID,85,VALID,0.418945,
2002-05-26, 02:34:00,VALID,918.563,VALID,0,VALID,99.5908,VALID,-0.0509425,VALID,19.361,VALID,100,VALID,0.381629,
2002-05-26, 02:35:00,VALID,918.555,VALID,0,VALID,99.5857,VALID,-0.0169808,VALID,19.3871,VALID,122,VALID,0.138393,
2002-05-26, 02:36:00,VALID,918.525,VALID,0,VALID,99.5959,VALID,-0.0169808,VALID,19.3862,VALID,126,VALID,0.169922,
2002-05-26, 02:37:00,VALID,918.505,VALID,0,VALID,99.5972,VALID,-0.0339617,VALID,19.4289,VALID,151,VALID,0.166233,
2002-05-26, 02:38:00,VALID,918.476,VALID,0,VALID,99.5895,VALID,-0.0169808,VALID,19.442,VALID,191,VALID,0.179688,
2002-05-26, 02:39:00,VALID,918.453,VALID,0,VALID,99.6022,VALID,-0.0679233,VALID,19.4547,VALID,244,VALID,0.126953,
2002-05-26, 02:40:00,VALID,918.421,VALID,0,VALID,99.5819,VALID,-0.0339617,VALID,19.4413,VALID,282,VALID,0.514205,
2002-05-26, 02:41:00,VALID,918.4,VALID,0,VALID,99.5997,VALID,-0.0169808,VALID,19.4386,VALID,308,VALID,0.562277,
2002-05-26, 02:42:00,VALID,918.37,VALID,0,VALID,99.5959,VALID,-0.0169808,VALID,19.4189,VALID,334,VALID,0.498828,
2002-05-26, 02:43:00,VALID,918.355,VALID,0,VALID,99.587,VALID,-0.0169808,VALID,19.4319,VALID,5,VALID,0.756696,
2002-05-26, 02:44:00,VALID,918.338,VALID,0,VALID,99.5984,VALID,-0.0169808,VALID,19.442,VALID,11,VALID,0.97886,
2002-05-26, 02:45:00,VALID,918.305,VALID,0,VALID,99.5908,VALID,0,VALID,19.4286,VALID,14,VALID,1.07676,
2002-05-26, 02:46:00,VALID,918.284,VALID,0,VALID,99.5921,VALID,-0.0679233,VALID,19.4157,VALID,11,VALID,0.926847,
2002-05-26, 02:47:00,VALID,918.277,VALID,0,VALID,99.6022,VALID,-0.0509425,VALID,19.3929,VALID,360,VALID,0.714732,
2002-05-26, 02:48:00,VALID,918.277,VALID,0,VALID,99.6073,VALID,-0.0509425,VALID,19.3802,VALID,354,VALID,0.528906,
2002-05-26, 02:49:00,VALID,918.271,VALID,0,VALID,99.5997,VALID,-0.0509425,VALID,19.3702,VALID,359,VALID,0.355357,
2002-05-26, 02:50:00,VALID,918.269,VALID,0,VALID,99.5984,VALID,-0.0339617,VALID,19.3834,VALID,12,VALID,0.66636,
2002-05-26, 02:51:00,VALID,918.273,VALID,0,VALID,99.6048,VALID,-0.0339617,VALID,19.4028,VALID,22,VALID,0.688086,
2002-05-26, 02:52:00,VALID,918.278,VALID,0,VALID,99.6022,VALID,-0.0679233,VALID,19.4227,VALID,22,VALID,0.527462,
2002-05-26, 02:53:00,VALID,918.289,VALID,0,VALID,99.5997,VALID,-0.0339617,VALID,19.406,VALID,18,VALID,0.347768,
2002-05-26, 02:54:00,VALID,918.286,VALID,0,VALID,99.6022,VALID,-0.0679233,VALID,19.3896,VALID,17,VALID,0.441016,
2002-05-26, 02:55:00,VALID,918.274,VALID,0,VALID,99.6061,VALID,-0.0509425,VALID,19.3797,VALID,30,VALID,0.522768,
2002-05-26, 02:56:00,VALID,918.263,VALID,0,VALID,99.6073,VALID,-0.0509425,VALID,19.3864,VALID,17,VALID,0.513787,
2002-05-26, 02:57:00,VALID,918.232,VALID,0,VALID,99.6061,VALID,-0.0339617,VALID,19.3762,VALID,26,VALID,0.655859,
2002-05-26, 02:58:00,VALID,918.208,VALID,0,VALID,99.6124,VALID,-0.0169808,VALID,19.3869,VALID,31,VALID,0.536695,
2002-05-26, 02:59:00,VALID,918.185,VALID,0,VALID,99.6073,VALID,-0.0509425,VALID,19.4,VALID,28,VALID,0.0618304,
2002-05-26, 03:00:00,VALID,918.168,VALID,0,VALID,99.6035,VALID,-0.0509425,VALID,19.403,VALID,28,VALID,0,
2002-05-26, 03:01:00,VALID,918.144,VALID,0,VALID,99.601,VALID,0,VALID,19.4023,VALID,20,VALID,0.0575893,
2002-05-26, 03:02:00,VALID,918.131,VALID,0,VALID,99.6022,VALID,0,VALID,19.3829,VALID,324,VALID,0.582031,
2002-05-26, 03:03:00,VALID,918.099,VALID,0,VALID,99.6061,VALID,-0.0339617,VALID,19.3802,VALID,323,VALID,0.457031,
2002-05-26, 03:04:00,VALID,918.096,VALID,0,VALID,99.6022,VALID,-0.0169808,VALID,19.3966,VALID,315,VALID,0.282434,
2002-05-26, 03:05:00,VALID,918.09,VALID,0,VALID,99.601,VALID,-0.0509425,VALID,19.409,VALID,309,VALID,0.111607,
2002-05-26, 03:06:00,VALID,918.086,VALID,0,VALID,99.6073,VALID,-0.0169808,VALID,19.4351,VALID,309,VALID,0.0939453,
2002-05-26, 03:07:00,VALID,918.066,VALID,0,VALID,99.5997,VALID,0,VALID,19.4346,VALID,309,VALID,0.0810268,
2002-05-26, 03:08:00,VALID,918.066,VALID,0,VALID,99.5997,VALID,-0.0169808,VALID,19.4314,VALID,309,VALID,0.0174632,
2002-05-26, 03:09:00,VALID,918.073,VALID,0,VALID,99.5997,VALID,-0.0679233,VALID,19.4383,VALID,351,VALID,0.34082,
2002-05-26, 03:10:00,VALID,918.071,VALID,0,VALID,99.5895,VALID,-0.0339617,VALID,19.4381,VALID,16,VALID,0.0830966,
2002-05-26, 03:11:00,VALID,918.058,VALID,0,VALID,99.5908,VALID,-0.0169808,VALID,19.4483,VALID,16,VALID,0.340402,
2002-05-26, 03:12:00,VALID,918.056,VALID,0,VALID,99.5921,VALID,0,VALID,19.4344,VALID,9,VALID,0.25293,
2002-05-26, 03:13:00,VALID,918.059,VALID,0,VALID,99.5997,VALID,0,VALID,19.4381,VALID,295,VALID,0.26942,
2002-05-26, 03:14:00,VALID,918.066,VALID,0,VALID,99.5997,VALID,-0.0169808,VALID,19.4319,VALID,229,VALID,0.363051,
2002-05-26, 03:15:00,VALID,918.061,VALID,0,VALID,99.5908,VALID,-0.0169808,VALID,19.4189,VALID,221,VALID,0.105273,
2002-05-26, 03:16:00,VALID,918.057,VALID,0,VALID,99.5908,VALID,0,VALID,19.4187,VALID,221,VALID,0.00118371,
2002-05-26, 03:17:00,VALID,918.048,VALID,0,VALID,99.5984,VALID,-0.0169808,VALID,19.4122,VALID,221,VALID,0,
2002-05-26, 03:18:00,VALID,918.046,VALID,0,VALID,99.5997,VALID,-0.0339617,VALID,19.4284,VALID,195,VALID,0.170898,
2002-05-26, 03:19:00,VALID,918.041,VALID,0,VALID,99.5972,VALID,-0.0339617,VALID,19.4254,VALID,178,VALID,0.126786,
2002-05-26, 03:20:00,VALID,918.036,VALID,0,VALID,99.5959,VALID,-0.0169808,VALID,19.4319,VALID,178,VALID,0.0165441,
2002-05-26, 03:21:00,VALID,918.038,VALID,0,VALID,99.5883,VALID,-0.0509425,VALID,19.4217,VALID,178,VALID,0.220313,
2002-05-26, 03:22:00,VALID,918.014,VALID,0,VALID,99.5921,VALID,-0.0169808,VALID,19.4289,VALID,178,VALID,0.371212,
2002-05-26, 03:23:00,VALID,918.014,VALID,0,VALID,99.5921,VALID,-0.0169808,VALID,19.4254,VALID,178,VALID,0.453795,
2002-05-26, 03:24:00,VALID,918.005,VALID,0,VALID,99.6022,VALID,-0.0339617,VALID,19.4157,VALID,173,VALID,0.612891,
2002-05-26, 03:25:00,VALID,917.982,VALID,0,VALID,99.6022,VALID,-0.0339617,VALID,19.4254,VALID,172,VALID,0.684821,
2002-05-26, 03:26:00,VALID,917.964,VALID,0,VALID,99.5972,VALID,-0.0169808,VALID,19.4281,VALID,161,VALID,0.522289,
2002-05-26, 03:27:00,VALID,917.962,VALID,0,VALID,99.6048,VALID,-0.0169808,VALID,19.4055,VALID,159,VALID,0.628516,
2002-05-26, 03:28:00,VALID,917.952,VALID,0,VALID,99.6035,VALID,0,VALID,19.3986,VALID,145,VALID,0.746922,
2002-05-26, 03:29:00,VALID,917.952,VALID,0,VALID,99.6086,VALID,0,VALID,19.4125,VALID,144,VALID,0.622768,
2002-05-26, 03:30:00,VALID,917.949,VALID,0,VALID,99.6048,VALID,-0.0509425,VALID,19.4023,VALID,133,VALID,0.36875,
2002-05-26, 03:31:00,VALID,917.958,VALID,0,VALID,99.601,VALID,-0.0169808,VALID,19.4088,VALID,147,VALID,0.662723,
2002-05-26, 03:32:00,VALID,917.962,VALID,0,VALID,99.6099,VALID,-0.0169808,VALID,19.412,VALID,151,VALID,0.411075,
2002-05-26, 03:33:00,VALID,917.966,VALID,0,VALID,99.6035,VALID,-0.0169808,VALID,19.4088,VALID,173,VALID,0.714063,
2002-05-26, 03:34:00,VALID,917.543,VALID,0,VALID,99.6035,VALID,0,VALID,19.4254,VALID,171,VALID,0.812737,